JA3VQW-13 Weather Reports


time (UTC)temp
C
wind
direction
speed
KPH
gust
KPH
rain 1hr
cm
rain 24hr
cm
rain mn
cm
humidity
%
barometer
mb
20260509185632 12 135 0.0 0.0 0.00 0.00 0.00 46 1011.0
20260509184131 12 135 0.0 0.0 0.00 0.00 0.00 45 1010.0
20260509183618 12 135 0.0 0.0 0.00 0.00 0.00 45 1010.0
20260509182631 12 135 0.0 0.0 0.00 0.00 0.00 44 1010.0
20260509181131 13 135 0.0 0.0 0.00 0.00 0.00 43 1010.0
20260509180618 13 135 0.0 0.0 0.00 0.00 0.00 42 1010.0
20260509175633 13 135 0.0 0.0 0.00 0.00 0.00 42 1010.0
20260509174132 13 135 0.0 0.0 0.00 0.00 0.00 40 1010.0
20260509173618 13 135 0.0 3.2 0.00 0.00 0.00 40 1010.0
20260509172633 13 135 0.0 0.0 0.00 0.00 0.00 40 1010.0
20260509171132 13 135 0.0 0.0 0.00 0.00 0.00 39 1010.0
20260509170617 13 135 0.0 0.0 0.00 0.00 0.00 39 1010.0
20260509165632 13 135 0.0 0.0 0.00 0.00 0.00 38 1010.0
20260509164132 13 135 0.0 0.0 0.00 0.00 0.00 38 1010.0
20260509163617 13 135 0.0 0.0 0.00 0.00 0.00 38 1010.0
20260509162632 14 135 0.0 0.0 0.00 0.00 0.00 38 1010.0
20260509161131 14 135 0.0 0.0 0.00 0.00 0.00 38 1010.0
20260509160617 14 135 0.0 0.0 0.00 0.00 0.00 38 1011.0
20260509155631 14 135 0.0 0.0 0.00 0.00 0.00 37 1010.0
20260509154133 14 135 0.0 0.0 0.00 0.00 0.00 37 1010.0
20260509153617 14 135 0.0 0.0 0.00 0.00 0.00 37 1010.0
20260509152635 14 135 0.0 0.0 0.00 0.00 0.00 37 1010.0
20260509151132 14 135 0.0 0.0 0.00 0.00 0.00 36 1010.0
20260509150617 15 135 0.0 4.8 0.00 0.00 0.00 36 1011.0
20260509145632 15 225 0.0 0.0 0.00 0.00 0.00 35 1011.0
20260509144131 15 225 0.0 0.0 0.00 0.00 0.00 35 1010.0
20260509143617 15 225 0.0 0.0 0.00 0.00 0.00 35 1010.0
20260509142632 16 225 0.0 0.0 0.00 0.00 0.00 34 1010.0
20260509141132 16 225 0.0 0.0 0.00 0.00 0.00 34 1010.0
20260509140617 16 225 0.0 0.0 0.00 0.00 0.00 34 1010.0
20260509135632 16 225 0.0 0.0 0.00 0.00 0.00 32 1010.0
20260509134132 16 225 0.0 0.0 0.00 0.00 0.00 30 1010.0
20260509133618 16 225 0.0 0.0 0.00 0.00 0.00 29 1010.0
20260509132631 16 225 0.0 0.0 0.00 0.00 0.00 28 1010.0
20260509131132 17 225 0.0 0.0 0.00 0.00 0.00 26 1010.0
20260509130618 17 225 0.0 0.0 0.00 0.00 0.00 25 1010.0
20260509125631 17 225 0.0 0.0 0.00 0.00 0.00 24 1010.0
20260509124131 17 225 0.0 0.0 0.00 0.00 0.00 24 1010.0
20260509123618 17 225 0.0 0.0 0.00 0.00 0.00 24 1010.0
20260509122631 17 225 0.0 0.0 0.00 0.00 0.00 24 1010.0
20260509121131 17 225 0.0 0.0 0.00 0.00 0.00 24 1009.0
20260509120617 17 225 0.0 0.0 0.00 0.00 0.00 23 1009.0
20260509115632 18 225 0.0 0.0 0.00 0.00 0.00 23 1009.0
20260509113617 18 225 0.0 0.0 0.00 0.00 0.00 23 1009.0
20260509112632 18 225 0.0 0.0 0.00 0.00 0.00 23 1009.0
20260509110617 18 225 0.0 0.0 0.00 0.00 0.00 23 1009.0
20260509105631 18 225 0.0 0.0 0.00 0.00 0.00 23 1009.0
20260509103616 19 225 0.0 0.0 0.00 0.00 0.00 20 1008.0
20260509102631 19 225 0.0 4.8 0.00 0.00 0.00 20 1008.0
20260509100618 20 226 0.0 3.2 0.00 0.00 0.00 17 1008.0
20260509095631 20 270 0.0 0.0 0.00 0.00 0.00 17 1008.0
20260509093617 21 225 0.0 0.0 0.00 0.00 0.00 17 1008.0
20260509092632 22 225 0.0 3.2 0.00 0.00 0.00 16 1008.0
20260509091132 23 256 3.2 8.0 0.00 0.00 0.00 16 1008.0
20260509090616 23 225 0.0 3.2 0.00 0.00 0.00 16 1008.0
20260509085632 24 225 0.0 3.2 0.00 0.00 0.00 15 1008.0
20260509084130 25 225 0.0 3.2 0.00 0.00 0.00 15 1009.0
20260509083616 24 225 0.0 3.2 0.00 0.00 0.00 15 1008.0
20260509082631 24 225 0.0 4.8 0.00 0.00 0.00 15 1008.0
20260509080618 23 225 0.0 3.2 0.00 0.00 0.00 15 1008.0
20260509075631 24 225 0.0 4.8 0.00 0.00 0.00 15 1008.0
20260509074132 25 180 1.6 3.2 0.00 0.00 0.00 15 1008.0
20260509073617 25 315 0.0 4.8 0.00 0.00 0.00 15 1007.0
20260509072631 25 315 0.0 0.0 0.00 0.00 0.00 15 1007.0
20260509071130 26 270 0.0 3.2 0.00 0.00 0.00 15 1007.0
20260509070617 26 270 0.0 3.2 0.00 0.00 0.00 15 1007.0
20260509065630 25 270 3.2 4.8 0.00 0.00 0.00 15 1007.0
20260509064132 26 315 3.2 4.8 0.00 0.00 0.00 15 1007.0
20260509063617 26 315 0.0 0.0 0.00 0.00 0.00 15 1007.0
20260509062632 26 315 0.0 0.0 0.00 0.00 0.00 15 1007.0
20260509061131 26 315 0.0 3.2 0.00 0.00 0.00 15 1007.0
20260509060616 26 315 0.0 0.0 0.00 0.00 0.00 15 1007.0
20260509055632 26 315 0.0 9.7 0.00 0.00 0.00 15 1007.0
20260509054130 27 315 0.0 3.2 0.00 0.00 0.00 14 1006.0
20260509053616 26 225 0.0 3.2 0.00 0.00 0.00 14 1006.0
20260509050616 26 270 0.0 3.2 0.00 0.00 0.00 15 1007.0
20260509044132 23 237 0.0 3.2 0.00 0.00 0.00 15 1007.0
20260509043617 25 315 1.6 8.0 0.00 0.00 0.00 15 1007.0
20260509042631 25 315 0.0 3.2 0.00 0.00 0.00 15 1007.0
20260509040617 23 180 0.0 3.2 0.00 0.00 0.00 15 1007.0
20260509035630 23 231 0.0 4.8 0.00 0.00 0.00 16 1007.0
20260509034130 23 295 4.8 14.5 0.00 0.00 0.00 16 1007.0
20260509033616 23 315 3.2 11.3 0.00 0.00 0.00 16 1007.0
20260509032631 23 274 0.0 8.0 0.00 0.00 0.00 16 1007.0
20260509031131 23 292 0.0 4.8 0.00 0.00 0.00 17 1008.0
20260509030617 23 270 0.0 3.2 0.00 0.00 0.00 16 1008.0
20260509025630 22 270 0.0 0.0 0.00 0.00 0.00 19 1008.0
20260509023616 21 292 9.7 19.3 0.00 0.00 0.00 19 1008.0
20260509021131 21 271 3.2 4.8 0.00 0.00 0.00 22 1008.0
20260509020616 20 270 3.2 4.8 0.00 0.00 0.00 22 1008.0
20260509015631 20 135 0.0 3.2 0.00 0.00 0.00 22 1008.0
20260509013615 20 270 0.0 0.0 0.00 0.00 0.00 23 1008.0
20260509011131 18 295 3.2 4.8 0.00 0.00 0.00 24 1009.0
20260509010617 18 283 4.8 4.8 0.00 0.00 0.00 24 1008.0
20260509005630 18 287 8.0 8.0 0.00 0.00 0.00 24 1008.0
20260509004131 18 283 3.2 8.0 0.00 0.00 0.00 25 1008.0
20260509003617 17 310 3.2 8.0 0.00 0.00 0.00 25 1008.0
20260509000616 17 315 0.0 0.0 0.00 0.00 0.00 28 1008.0
20260508234131 16 273 4.8 4.8 0.00 0.00 0.00 29 1008.0
20260508233616 17 305 4.8 12.9 0.00 0.00 0.00 28 1008.0
20260508232630 16 270 0.0 3.2 0.00 0.00 0.00 31 1008.0
20260508231131 16 225 3.2 8.0 0.00 0.00 0.00 32 1008.0
20260508230616 16 305 8.0 11.3 0.00 0.00 0.00 32 1008.0
20260508225631 16 315 3.2 9.7 0.00 0.00 0.00 33 1008.0
20260508224130 15 315 9.7 8.0 0.00 0.00 0.00 34 1008.0
20260508223615 15 287 8.0 11.3 0.00 0.00 0.00 35 1009.0
20260508222629 15 306 8.0 9.7 0.00 0.00 0.00 35 1009.0
20260508221130 15 310 3.2 9.7 0.00 0.00 0.00 35 1008.0
20260508220617 15 295 8.0 8.0 0.00 0.00 0.00 35 1008.0
20260508215630 15 315 4.8 4.8 0.00 0.00 0.00 35 1008.0
20260508214130 15 270 3.2 3.2 0.00 0.00 0.00 36 1008.0
20260508213617 14 315 0.0 0.0 0.00 0.00 0.00 36 1008.0
20260508212630 14 315 3.2 8.0 0.00 0.00 0.00 36 1008.0
20260508211129 14 289 4.8 8.0 0.00 0.00 0.00 36 1007.0
20260508210616 14 315 3.2 4.8 0.00 0.00 0.00 35 1007.0
20260508205629 14 306 3.2 8.0 0.00 0.00 0.00 35 1007.0
20260508203618 14 285 4.8 8.0 0.00 0.00 0.00 35 1007.0
20260508202633 14 315 3.2 8.0 0.00 0.00 0.00 35 1007.0
20260508201133 14 315 8.0 4.8 0.00 0.00 0.00 35 1007.0
20260508200618 14 299 3.2 9.7 0.00 0.00 0.00 35 1007.0
20260508195633 14 315 0.0 3.2 0.00 0.00 0.00 35 1007.0
20260508194133 14 315 0.0 0.0 0.00 0.00 0.00 35 1006.0
20260508193617 14 225 0.0 3.2 0.00 0.00 0.00 35 1006.0
20260508192632 14 225 0.0 0.0 0.00 0.00 0.00 35 1006.0
20260508191133 15 232 3.2 8.0 0.00 0.00 0.00 33 1006.0
20260508190619 15 267 0.0 4.8 0.00 0.00 0.00 32 1006.0